Temp
22 23 23 26 26 27 27 27 28 28 28 29 29 28 30 30 31 30 23 23 22 23 22 20 20 19 19 18 18 18 18 18 18 18 18 18 18 18 18 18 17 17 17 17 16 16 17 17 17
22 23 25 27 26 26 28 28 27 28 28 28 28 28 29 30 29 28 26 22 22 23 22 22 20 20 19 18 18 18 17 18 18 18 18 18 18 18 18 18 18 17 17 16 16 16 16 16 16
21 23 26 26 26 26 27 27 28 27 28 28 29 29 29 30 27 28 24 22 22 23 22 22 20 20 19 18 18 17 17 17 17 18 18 18 18 18 18 18 18 17 17 17 16 16 16 15 15
23 25 25 25 26 27 26 27 27 27 28 28 28 29 29 27 27 25 23 22 22 23 22 20 20 20 19 18 18 17 17 17 17 18 18 18 18 18 18 18 18 18 17 17 16 16 16 16 16
23 25 25 24 25 27 27 27 26 27 27 28 28 29 29 27 24 24 23 22 23 22 22 20 20 20 19 18 18 17 17 17 17 17 18 18 18 18 18 18 18 18 17 17 16 16 16 16 16
24 25 24 24 26 26 26 27 26 27 28 28 28 29 30 26 25 23 23 23 23 22 22 21 19 19 19 19 18 17 17 17 17 17 17 17 18 18 19 18 18 17 17 16 16 16 16 16 16
23 24 24 25 26 26 25 27 26 27 28 28 29 29 30 29 25 23 23 23 22 22 22 21 20 19 19 19 18 18 17 17 17 17 17 17 17 18 17 17 17 16 17 17 16 16 16 16 17
23 24 24 24 24 24 26 25 26 26 27 27 28 28 29 27 24 23 23 22 22 22 21 21 21 20 19 18 18 18 18 18 18 17 17 17 17 18 18 17 17 16 17 16 16 16 17 17 17
21 22 23 23 23 25 25 24 26 26 26 27 27 27 26 23 23 23 23 22 22 21 21 21 22 21 20 20 18 18 18 18 18 17 17 17 18 17 17 17 17 17 16 16 16 17 17 17 17
21 22 23 25 24 24 25 24 25 25 26 26 27 27 25 24 23 24 24 24 23 22 22 20 21 21 20 20 19 19 19 18 18 18 17 18 17 17 17 17 17 17 16 16 16 17 17 17 17
20 21 23 22 22 23 23 23 24 24 24 26 27 27 26 25 25 25 25 26 25 24 23 21 20 19 20 20 19 19 19 19 19 18 18 17 17 17 17 18 17 17 16 16 16 16 16 16 16
18 20 21 21 21 21 21 23 22 24 25 27 26 25 25 26 26 26 25 25 24 23 23 21 20 19 18 20 19 20 20 19 19 18 18 17 18 17 18 18 17 16 16 16 16 16 15 15 15
18 20 20 20 20 20 21 21 22 22 24 24 24 24 25 25 26 26 25 25 24 23 22 21 20 18 18 19 19 19 20 19 19 18 18 18 18 18 17 16 16 16 16 16 16 16 15 15 15
18 18 19 19 19 20 19 21 21 22 23 23 24 24 25 26 26 26 25 25 25 24 23 22 20 19 18 18 19 19 20 19 19 18 18 18 18 17 16 17 16 15 15 15 15 15 14 14 14
17 17 19 20 20 19 20 19 20 22 23 23 23 24 25 25 25 26 25 26 26 25 24 23 22 20 18 18 19 20 19 19 18 18 18 17 16 17 16 16 15 14 14 14 14 14 13 14 14
17 17 18 20 19 20 19 20 22 22 22 22 23 24 24 25 25 25 26 25 25 25 24 23 22 21 18 19 19 20 19 19 18 18 17 16 17 16 16 15 14 14 13 13 13 13 13 13 13
17 18 17 18 19 19 19 20 21 22 22 22 23 24 24 24 25 25 25 25 24 24 24 22 21 21 20 20 19 18 19 17 16 16 17 16 16 16 16 14 14 13 13 12 12 12 12 12 12
18 16 17 18 19 18 18 19 20 21 21 21 22 23 23 23 23 24 24 24 23 23 23 22 21 21 20 19 18 17 16 15 16 16 16 16 16 15 14 13 13 12 12 12 12 11 11 10 11
16 16 17 18 17 17 18 18 20 20 20 20 21 22 22 23 23 22 23 23 22 22 22 21 21 20 19 17 16 14 14 15 15 15 15 15 15 14 14 13 12 12 12 11 11 10 10 10 10
15 15 16 17 17 16 17 18 19 19 19 20 21 22 22 22 23 23 23 23 22 23 21 21 20 19 18 17 16 15 14 13 13 14 14 14 14 14 13 13 12 11 11 10 10 10 10 10 9
15 15 16 15 16 16 16 17 21 22 21 21 21 21 22 22 23 23 24 23 22 22 21 20 19 18 18 16 16 15 12 11 11 12 13 13 13 13 12 12 11 10 10 9 9 9 9 10 9
14 16 15 14 14 14 16 17 20 21 21 21 21 21 21 21 22 22 23 23 23 21 20 18 17 18 17 16 15 14 15 13 11 12 12 12 12 11 11 11 10 10 9 8 8 8 8 8 9
14 14 14 14 14 13 15 12 18 19 19 20 21 22 23 22 22 22 22 22 22 21 18 17 17 17 16 14 15 16 15 14 11 11 11 10 10 10 10 9 9 9 8 8 7 7 7 7 7
14 13 13 13 13 12 15 15 17 19 21 20 20 22 22 22 21 21 21 21 21 20 17 16 17 16 15 14 16 16 14 11 9 9 9 9 10 9 8 8 8 8 7 7 6 6 6 6 6
13 12 13 12 11 14 18 16 17 19 19 20 21 22 21 21 21 21 21 21 20 18 16 16 16 16 14 14 14 14 12 12 11 10 10 11 10 9 8 8 8 7 6 6 6 6 5 5 5
12 13 14 14 16 16 17 15 18 20 20 20 21 20 20 20 20 21 21 20 19 17 17 16 17 15 14 14 13 13 12 11 11 11 11 11 10 9 8 7 7 6 6 5 5 5 5 5 5
12 11 14 13 14 12 15 17 18 19 18 19 20 19 19 19 19 19 21 19 19 17 17 16 17 16 15 14 13 12 12 11 11 10 11 10 9 8 7 7 6 6 5 5 5 5 5 4 4
13 14 11 11 12 13 16 16 17 19 19 19 19 19 19 19 19 19 19 19 18 17 17 17 16 16 15 13 12 11 11 10 10 10 10 9 8 7 7 6 6 5 5 5 4 5 4 4 4
11 10 10 12 13 13 13 17 20 19 19 19 18 18 18 18 18 18 18 18 17 16 16 16 16 14 12 11 10 10 9 9 10 10 9 8 7 7 6 6 5 5 5 4 4 4 4 3 3
15 14 13 11 12 11 12 15 19 19 18 17 18 18 18 16 16 16 16 17 16 16 15 15 14 12 11 9 10 9 9 9 9 9 8 7 6 6 5 5 5 4 4 4 4 4 3 3 3
Height
797 796 794 792 802 794 794 791 779 782 780 770 770 773 768 765 765 776 770 772 773 776 780 784 787 789 791 792 794 795 797 798 799 801 802 803 803 805 805 806 807 807 807 806 805 804 804 804 804
797 795 793 790 802 800 787 779 786 779 774 772 770 770 771 765 761 764 769 773 774 777 780 784 787 790 792 793 795 796 797 799 801 802 803 804 805 805 806 807 807 808 807 807 806 805 805 805 805
796 795 793 793 793 796 790 780 774 777 773 773 770 767 765 763 765 765 770 771 776 778 780 783 787 790 792 794 795 797 798 799 801 802 804 805 806 807 807 808 808 808 808 807 806 806 806 806 806
794 793 793 798 793 783 784 778 777 777 771 770 769 769 762 765 765 768 770 773 775 779 781 783 784 789 792 795 796 797 799 800 801 803 803 805 806 807 808 808 808 808 808 808 807 807 806 807 806
793 789 794 796 787 777 778 776 778 779 776 771 769 766 764 763 767 768 770 774 777 780 782 784 785 789 792 794 796 798 799 801 802 803 804 804 805 806 806 808 808 809 809 808 807 806 807 807 805
791 786 795 793 783 778 779 774 777 775 771 770 771 766 761 765 766 768 770 773 778 781 784 785 786 789 792 794 795 797 799 800 802 803 804 805 805 805 805 808 809 809 809 808 807 806 807 807 806
787 789 786 784 780 778 778 772 776 773 770 770 765 769 758 762 767 769 771 773 777 781 784 785 787 790 792 794 796 797 798 800 801 803 804 805 805 805 807 808 809 809 809 808 807 807 807 806 806
786 784 785 785 783 781 772 775 770 770 769 767 766 768 763 766 769 770 772 774 777 779 782 785 786 790 792 795 796 797 798 799 801 803 804 805 806 806 807 809 809 809 809 809 808 807 807 806 805
789 788 783 781 783 775 772 774 768 768 768 767 765 764 766 769 771 771 772 775 776 778 779 782 784 789 791 793 795 797 799 800 801 802 803 805 807 807 807 808 809 809 809 808 809 808 808 807 806
786 785 775 767 771 775 771 771 769 772 768 766 765 762 766 768 770 770 770 770 772 775 777 779 782 786 790 792 794 797 798 799 801 802 803 804 805 806 807 807 808 809 809 809 808 807 808 808 807
784 781 770 776 776 774 773 774 770 771 771 764 763 760 764 765 766 767 767 767 769 771 774 777 779 783 787 789 792 794 796 798 800 801 802 803 804 806 807 808 808 810 809 809 809 808 808 807 806
790 779 777 777 777 778 777 772 772 768 763 759 762 763 764 762 762 763 764 765 767 770 771 774 777 778 782 786 789 791 793 795 797 799 800 801 803 804 806 807 808 809 808 809 809 808 807 807 806
787 779 780 779 780 778 775 773 773 768 762 763 763 762 761 759 759 759 761 762 764 766 768 770 773 774 777 780 785 787 791 792 794 796 798 799 801 803 805 806 807 807 809 810 809 808 807 806 805
784 784 781 779 777 775 777 769 770 761 760 760 760 758 757 755 755 755 757 758 759 761 764 767 768 770 772 774 778 783 787 789 792 793 795 797 799 802 803 804 806 808 809 810 809 808 808 806 804
785 786 776 772 772 774 772 768 763 753 754 754 753 751 750 750 751 750 751 753 754 756 759 761 764 767 768 771 774 779 782 786 789 791 794 795 798 799 802 804 805 807 808 809 808 808 807 805 803
786 784 780 767 771 768 772 761 750 748 745 750 747 746 744 744 744 745 746 747 750 752 754 757 759 762 765 769 772 774 777 781 786 789 791 792 795 798 800 803 805 807 807 808 807 808 806 804 802
783 777 780 775 768 767 767 756 749 746 748 746 743 741 739 739 739 739 741 742 745 746 748 751 754 756 760 765 768 771 775 778 781 785 787 790 793 797 799 802 804 806 807 807 807 807 805 803 802
771 782 778 775 768 770 765 757 750 748 749 747 742 737 736 737 735 735 736 737 739 740 742 744 747 751 755 760 765 768 772 774 778 782 786 789 792 795 798 801 804 806 807 807 807 807 805 804 803
782 780 777 772 771 773 761 750 748 745 743 742 739 736 732 729 731 733 732 733 734 735 736 737 741 745 751 755 759 764 766 771 775 780 784 788 791 793 796 801 803 805 805 806 807 807 805 805 803
783 781 776 770 769 773 761 739 742 741 732 732 729 725 723 723 723 724 726 726 728 729 731 733 736 740 746 751 756 758 763 770 774 777 783 787 790 793 795 799 802 803 805 806 806 806 806 806 806
780 779 775 777 772 770 767 737 717 711 713 715 717 717 715 713 714 714 715 717 721 722 725 728 731 736 741 748 753 757 761 767 773 777 782 787 790 793 795 798 801 802 804 805 806 806 806 807 807
779 773 776 780 782 775 768 742 717 712 711 711 709 707 706 705 705 706 705 706 710 715 719 723 727 730 736 742 748 747 749 761 770 775 780 786 790 793 795 797 800 801 803 804 805 806 807 807 807
778 777 777 777 776 776 761 781 716 713 714 710 703 699 696 695 694 696 697 698 702 707 712 717 722 726 729 736 743 748 752 759 766 773 779 784 790 792 794 797 799 801 801 803 804 805 807 807 807
776 779 779 777 779 775 740 750 724 710 701 700 699 693 690 689 688 689 691 692 695 701 706 712 716 722 727 731 739 744 749 754 764 772 778 784 789 792 794 797 799 801 801 802 803 804 805 805 805
776 781 770 774 778 747 726 731 710 705 703 700 691 688 688 686 684 684 685 687 689 694 699 705 710 716 723 728 734 740 746 749 757 767 775 781 787 791 794 795 800 801 801 801 802 803 804 804 804
771 769 759 753 734 728 723 725 694 688 693 692 690 691 687 683 679 677 678 680 683 689 694 700 705 712 718 725 732 737 744 752 758 766 773 780 785 789 792 795 799 800 800 800 800 801 802 802 802
769 775 760 760 744 751 728 706 697 685 695 689 689 689 685 681 678 675 672 676 678 681 688 696 701 708 715 722 728 736 744 751 757 765 773 778 783 787 791 795 798 799 800 799 799 799 800 799 799
761 759 768 768 751 731 704 704 693 681 683 684 686 685 681 677 674 672 670 672 675 678 684 694 701 707 714 722 728 734 743 750 755 764 771 776 782 786 790 794 797 798 798 798 797 798 797 797 796
762 765 764 754 740 729 717 689 668 678 679 678 682 682 680 677 673 671 668 670 675 678 683 692 701 708 715 722 727 735 744 749 756 765 771 777 782 786 790 794 795 797 797 796 796 795 794 794 793
734 736 742 747 734 731 723 687 674 675 679 683 682 677 678 679 672 672 670 672 676 679 683 691 700 708 715 720 728 738 745 751 759 766 772 778 782 786 790 793 794 794 795 794 793 793 792 791 791
Wind_Speed
10 8 6 4 6 5 7 4 4 3 3 1 4 7 3 7 4 1 2 9 8 19 19 19 17 17 16 15 12 10 8 8 10 9 8 7 6 4 5 5 5 4 5 6 6 5 3 3 3
6 4 2 2 6 9 7 6 7 2 5 8 5 6 8 3 1 3 9 6 12 19 19 17 18 17 16 14 12 10 9 9 10 10 7 8 6 6 6 6 3 4 5 6 6 6 7 5 4
3 2 3 4 8 12 6 8 5 1 4 2 2 3 3 1 1 2 5 11 15 18 19 17 18 17 15 13 12 10 10 10 11 12 7 5 4 5 7 6 5 2 4 5 6 6 6 6 5
5 4 3 9 15 10 9 0 3 4 2 1 3 6 3 1 1 3 5 10 16 18 17 17 21 17 14 12 12 11 10 10 11 10 8 5 4 5 6 5 4 1 3 4 5 5 5 5 5
4 3 9 11 18 16 9 8 7 9 5 4 6 1 2 2 1 3 9 11 15 16 16 17 18 16 14 12 11 10 10 10 10 9 8 4 3 0 7 7 5 1 2 3 4 5 5 5 5
6 5 8 16 18 11 11 10 10 12 8 8 6 6 0 3 3 5 11 11 12 15 16 16 16 15 14 13 12 11 10 9 9 9 7 3 1 4 4 8 4 1 1 3 4 5 4 5 5
11 9 15 17 15 14 12 8 12 11 11 10 4 6 2 3 5 8 11 12 12 14 14 14 14 13 14 13 12 11 10 9 9 10 8 5 2 2 6 6 3 1 2 3 4 4 4 3 4
6 6 15 13 16 19 7 7 5 8 10 1 3 7 5 5 5 9 10 11 13 15 14 13 13 13 14 12 12 11 10 10 10 10 8 6 4 3 3 3 3 2 1 2 3 4 5 5 5
3 8 13 19 16 12 5 9 8 2 7 4 4 4 3 2 5 9 10 11 13 14 15 14 14 14 14 12 12 11 10 10 10 9 7 4 3 4 4 4 3 2 1 0 2 4 4 5 6
10 11 16 11 13 9 10 8 6 6 11 10 8 5 0 1 6 10 12 14 15 16 17 15 16 15 15 13 13 12 11 10 9 8 6 4 4 5 6 4 4 2 2 1 3 3 4 6 6
9 15 13 7 10 9 12 12 10 11 14 14 11 5 2 2 4 10 12 12 13 14 16 17 17 16 16 14 14 13 12 12 11 9 8 6 6 5 5 3 3 2 2 2 2 3 4 6 7
9 13 12 9 9 9 12 11 13 16 19 11 9 7 8 10 9 8 10 11 11 13 15 17 19 19 19 16 16 15 14 14 12 11 10 8 7 6 6 4 4 3 2 1 2 3 4 6 7
11 11 9 10 10 13 15 20 21 19 17 16 15 14 15 14 14 12 10 10 12 15 16 18 20 21 22 19 17 16 16 15 13 12 11 11 9 8 7 6 4 3 3 1 3 4 5 6 7
2 6 10 9 14 16 18 22 18 21 19 21 23 23 20 18 17 15 11 12 14 15 17 17 20 20 21 25 20 18 17 16 15 13 13 11 9 9 8 9 7 4 3 2 3 4 5 6 7
6 10 12 15 13 13 10 20 20 24 24 24 21 20 21 22 23 21 18 15 15 15 15 18 19 20 21 24 21 20 18 17 15 13 13 12 11 11 11 10 7 5 3 3 4 4 5 7 7
5 5 5 2 2 7 10 17 5 3 8 18 22 22 22 23 24 27 24 18 14 15 14 14 17 20 21 22 22 21 20 18 16 15 15 15 15 13 14 11 7 5 4 3 4 5 5 7 8
8 7 9 9 4 6 12 11 4 8 9 12 15 16 16 19 23 28 26 23 19 15 15 14 15 19 22 22 22 20 20 19 19 18 19 19 18 17 14 10 9 6 5 4 4 5 7 9 11
5 7 7 10 3 6 15 21 20 19 20 19 19 19 16 16 16 21 22 21 18 15 14 15 14 17 21 22 21 19 18 19 21 21 22 22 21 18 14 11 10 7 6 6 5 5 7 9 12
2 6 10 9 7 15 17 23 21 21 22 22 22 22 22 22 17 21 20 17 15 14 13 14 15 18 23 25 24 21 20 23 23 23 24 24 22 19 16 13 10 8 8 7 6 4 6 9 13
14 16 16 14 13 11 18 31 23 24 29 26 25 25 24 23 22 20 23 22 18 18 16 15 18 21 25 25 23 20 22 17 19 26 25 23 22 20 16 14 11 9 9 7 7 7 5 6 10
15 17 14 15 15 18 21 26 16 8 13 18 23 26 27 26 24 23 23 27 21 18 18 19 21 23 25 23 22 22 18 20 21 25 25 23 21 18 16 14 11 10 8 7 6 7 7 6 6
14 8 13 13 10 6 2 11 15 14 14 14 14 14 17 21 23 24 23 25 25 22 19 19 22 25 26 27 25 30 26 26 19 30 27 24 19 15 15 14 12 10 8 7 6 6 5 4 5
7 4 7 9 11 11 18 6 13 4 15 11 14 15 16 16 18 20 23 28 26 23 21 22 24 26 28 28 26 26 24 20 26 32 29 24 16 15 15 13 11 10 8 7 6 5 4 3 3
3 7 9 11 8 8 21 14 19 19 15 11 12 13 14 12 13 16 20 23 24 20 22 24 27 27 27 29 27 26 29 29 31 28 27 21 16 14 13 12 10 9 8 7 5 4 2 1 1
11 5 3 4 6 9 6 10 20 13 10 17 22 19 15 13 12 12 14 14 19 23 26 27 29 28 29 29 28 27 28 36 41 33 27 22 18 15 14 12 10 8 7 6 5 3 1 1 3
18 14 5 7 10 12 5 11 12 20 17 18 14 13 8 10 11 13 13 14 19 24 27 29 30 28 30 29 27 28 32 31 34 28 24 20 17 15 14 11 9 8 6 5 3 2 1 3 4
5 9 13 18 20 13 16 23 18 23 15 19 13 7 8 11 12 12 11 11 18 24 28 29 30 28 29 28 25 26 31 28 28 24 22 19 17 16 14 12 9 7 5 4 2 1 3 3 4
14 0 5 6 6 18 13 15 13 13 9 15 12 8 10 12 14 14 10 10 17 21 25 25 26 28 28 26 26 34 27 24 31 25 21 19 17 16 14 11 9 7 4 2 1 2 3 4 5
10 8 6 6 9 8 14 16 11 9 12 13 7 10 13 12 12 14 8 9 14 20 23 25 25 26 26 25 30 29 27 29 28 22 20 18 17 15 13 10 8 5 3 1 2 3 4 6 7
16 16 19 9 12 7 10 21 12 13 10 8 12 12 10 11 10 12 6 7 14 20 24 25 25 25 25 29 30 28 27 27 23 21 18 17 16 13 11 9 7 4 2 1 2 4 6 7 9
Wind_Direction
330 324 320 254 249 237 245 221 265 257 223 315 308 262 298 317 259 342 105 162 143 156 160 166 175 167 163 157 155 147 132 120 125 124 111 115 123 112 112 120 100 66 38 39 46 48 28 338 331
324 320 260 261 252 238 230 223 218 197 329 308 277 238 243 270 304 78 124 163 154 160 159 167 180 176 169 162 159 150 140 127 134 123 128 124 129 123 143 139 128 82 55 51 52 52 49 39 22
280 298 261 243 241 240 260 209 198 350 320 282 270 237 283 36 107 65 99 157 158 164 162 167 176 178 173 165 161 153 149 141 136 138 132 149 151 142 157 156 123 106 41 52 57 53 46 30 20
213 190 188 239 235 238 251 133 161 315 182 263 329 259 209 41 41 86 136 153 161 170 168 177 173 184 180 176 165 156 152 150 149 151 155 164 190 202 176 184 212 215 48 52 49 36 21 5 5
200 231 238 238 244 249 237 260 270 275 292 277 319 228 279 108 94 134 148 156 165 172 172 172 177 185 184 180 167 162 157 161 167 169 178 129 99 344 215 203 203 200 49 40 32 19 4 350 2
194 246 228 233 236 226 247 255 263 266 265 283 263 261 273 122 163 151 153 159 167 173 175 171 178 185 189 184 171 167 164 165 171 173 176 150 149 38 165 185 185 154 29 12 7 11 11 24 24
233 217 235 245 245 243 238 244 247 263 269 254 269 248 96 147 123 142 151 156 166 177 176 172 177 189 195 190 180 170 164 165 167 173 178 193 214 88 106 149 165 195 323 2 22 23 5 4 345
237 240 238 234 240 243 214 206 247 241 258 7 242 229 214 60 135 149 155 162 170 175 178 179 174 185 185 187 187 176 169 162 162 168 184 206 226 204 155 148 190 216 318 23 19 354 350 344 344
227 228 234 229 237 231 214 217 206 200 246 219 203 267 44 67 171 172 170 175 177 182 183 182 182 187 190 187 187 183 177 167 164 170 187 195 199 189 158 192 190 191 161 121 324 355 357 7 355
214 228 240 246 251 241 229 238 257 236 214 224 224 201 148 148 197 207 202 195 192 189 190 189 189 194 192 190 187 185 183 179 179 176 171 186 183 178 168 163 182 199 227 298 333 352 359 16 352
211 238 233 235 251 254 250 248 234 243 242 235 235 243 282 326 241 233 234 228 208 201 194 196 191 193 192 194 193 189 188 189 192 188 180 167 154 163 166 163 148 175 147 72 28 20 11 2 352
238 241 260 259 236 255 247 262 248 244 248 271 268 273 285 281 279 263 244 236 216 211 204 200 197 191 195 195 195 197 192 193 193 197 187 175 166 157 163 163 147 139 128 91 27 359 360 357 347
235 254 253 254 257 259 269 256 258 265 257 257 259 261 270 271 272 264 253 245 223 217 212 205 201 198 199 193 198 196 201 196 197 192 192 180 170 164 163 143 152 104 79 37 9 356 352 341 336
284 268 268 270 262 262 260 262 256 253 260 256 255 254 255 257 258 264 245 242 228 222 218 210 207 205 200 196 195 197 198 198 196 192 186 178 173 168 161 167 160 116 88 42 20 3 341 337 334
274 281 276 262 253 259 262 263 246 254 250 253 253 249 248 247 250 255 258 252 238 232 230 218 214 209 202 199 196 196 195 193 192 190 182 177 171 179 171 164 142 123 103 62 26 356 344 339 338
254 265 281 86 274 235 220 267 285 261 228 252 255 253 251 246 247 247 250 253 248 241 228 223 215 211 206 204 199 195 190 187 187 184 180 177 180 180 170 155 138 126 99 64 34 7 354 353 346
216 256 234 281 249 280 216 273 288 252 286 274 263 262 261 252 248 245 248 253 256 245 234 228 220 213 208 205 193 190 184 181 181 181 182 178 176 174 169 149 138 123 100 75 55 26 19 2 349
231 226 234 251 175 272 271 267 269 267 275 275 273 266 256 253 252 247 244 244 249 247 235 229 222 210 199 193 183 173 174 175 179 179 177 174 172 167 153 142 139 125 105 83 66 46 29 14 348
290 265 260 256 271 302 272 273 272 275 272 266 261 261 259 256 250 256 254 248 245 245 236 219 203 196 184 177 175 169 167 171 172 176 174 174 171 161 152 145 136 126 105 91 72 56 34 16 0
249 261 265 279 274 273 287 286 285 274 265 260 258 254 253 254 251 243 250 248 242 237 227 212 202 192 186 187 184 170 164 158 166 171 170 171 166 158 150 147 139 125 112 92 70 55 36 23 17
242 253 269 276 295 287 282 283 275 268 267 260 253 256 258 254 248 246 239 239 238 233 220 208 200 191 185 183 171 154 144 147 154 160 160 161 160 154 151 145 137 127 114 101 79 58 46 22 17
263 262 257 259 276 275 55 291 298 291 287 265 264 252 251 252 245 245 240 235 230 227 217 204 195 186 181 177 176 168 161 160 164 164 162 160 159 149 148 145 138 130 118 106 87 67 54 27 9
238 215 243 254 258 280 251 248 279 264 284 267 271 260 272 269 249 241 236 232 227 221 202 196 189 182 177 179 179 169 161 156 156 165 160 158 152 152 148 145 139 130 120 110 102 86 65 46 5
112 228 256 261 263 248 250 221 276 275 285 284 276 263 288 283 253 244 246 234 226 210 192 187 183 181 177 174 177 171 163 152 151 154 154 153 156 149 146 144 139 132 125 120 114 101 82 44 320
220 204 252 233 209 244 288 219 237 278 280 271 279 290 298 303 277 267 243 232 219 197 187 185 181 178 177 173 172 170 168 166 163 162 159 162 160 158 154 147 145 141 137 132 126 117 133 269 284
208 209 224 252 259 283 266 238 235 247 259 260 269 281 302 323 299 264 244 230 213 198 188 184 180 175 175 173 168 169 171 163 161 162 165 164 161 158 155 150 151 147 143 138 136 147 236 268 277
185 219 242 270 267 268 255 263 269 260 248 254 266 287 318 347 352 297 259 224 209 190 186 186 180 175 172 170 163 162 162 162 158 157 158 155 154 153 151 152 155 153 150 147 153 220 259 266 284
225 313 209 207 260 253 247 245 257 273 267 252 220 276 321 333 347 335 266 224 203 189 181 182 179 172 166 162 162 164 160 163 155 154 154 152 150 150 150 154 157 157 155 165 213 257 268 288 301
199 227 211 273 254 266 276 270 292 276 271 255 243 296 309 320 347 340 285 223 197 176 171 172 171 166 162 159 160 157 155 150 150 150 148 148 147 149 151 156 156 159 167 200 253 282 291 303 305
236 238 224 232 235 221 262 271 265 266 266 236 278 301 318 317 357 346 298 199 180 169 164 163 162 162 159 152 152 151 147 144 144 145 144 146 144 146 150 152 152 156 178 240 292 298 302 301 299